Showing default

NUSAT-26 (M SOMERVILLE), 52184

Orbit data source: Space-Track

NUSAT-26 (M SOMERVILLE), 52184 is a payload satellite owned by URUGUS S.A. (AR) in SSO that was launched on Fri, 01 Apr 2022 UTC via an FALCON 9 launch vehicle from the Air Force Eastern Test Range (AFETR). Payload-class satellites include a variety of spacecraft equipped with specific instruments for various scientific and technological missions. These include communications satellites like Starlink; space stations such as the ISS; scientific satellites like the Hubble; Earth observation satellites from companies like Planet Labs, Umbra, and HawkEye 360; GPS; miniature CubeSats for education and research; and military/defense satellites.

Loading next visibility...
Identifier
52184, 2022-033AD
Orbit
SSO
Last TLE update
10 hours ago
Origin
Manufacturer
URUGUS S.A.
Mission
Operational Commercial Imaging
Bus & Motor
NEWSAT IV, Unknown motor
Mass
41.5 kg wet, 38.5 kg dry
Launch date (UTC)
2022-04-01 (3 years ago)
Launch vehicle
FALCON 9
Launch site
Air Force Eastern Test Range (AFETR)
Object type
Payload
Rocket body
Debris
Shape & HBR
Box, 0.813 m
Radar Cross Section
0.542 m², Medium (>0.1 m² and < 1m²)

Expand to show TLE details & history

TLE from 10 hours ago
0 NUSAT-26 (M SOMERVILLE)
1 52184U 22033AD  25191.59131499  .00006489  00000-0  23379-3 0  9993
2 52184  97.2711 271.1186 0008160  41.7423 318.4439 15.28863835 52290
Epoch: 2025-07-10T14:11Z
TLE epoch observation values (Epoch: 2025-07-10T14:11:29.615Z)
Latitude
0.00005°
Longitude
129.4898°
Altitude
478.128 km
Speed
7.629 km/s
True Right ascension
18h 04m 28s
True Declination
0° 00' 00"
Sunlit
Object was in full shadow at epoch
Visualization orbit readout
Latitude
21.93164°
Longitude
-47.17007°
Altitude
484.633 km
Speed
7.623 km/s
Apparent Right ascension
03h 53m 49s
Apparent Declination
-10° 22' 48"
Sunlit
Object is in daylight
Visualization observer readout
Local Sidereal Time
12:34:27
Azimuth
289.68° WNW
Elevation
-37.025°
Doppler factor
1
Orbital elements
Apogee altitude
481.749 km
Perigee altitude
470.563 km
Semi-major axis
6,854.293 km
Eccentricity
0.00082
Inclination
97.2711°
RAAN
271.1186°
Arg. of periapsis
41.7423°
True anomaly
Unknown
Mean anomaly
318.4439°
Eccentric anomaly
Unknown
Mean motion
3.82472 °/min
Orbital period
94.12 mins
BSTAR
0.00023379
Loading maneuver chart data...
Loading SW <> Apogee altitude chart data...
Loading historical data...
Loading historical data...
Loading historical data...
Loading historical data...
Loading historical data...
Loading historical data...
Loading historical data...

NUSAT-26 (M SOMERVILLE) Visibility forecast

Observer location: undefined°, undefined°

Span
Click to sort rows by Start time (UTC) header in descending order
Start Az.
Max El. time (UTC)
Max El. Az.
Max El.
End time (UTC)
End Az.
4 mins2025-07-11 04:29:15.006Z102.929° ESE2025-07-11 04:31:15.006Z63.676° ENE16.183°2025-07-11 04:33:15.006Z28.196° NE
4 mins2025-07-11 06:02:15.006Z218.351° SW2025-07-11 06:04:15.006Z266.35° W23.184°2025-07-11 06:06:15.006Z311.737° NW
4 mins2025-07-11 17:29:15.006Z64.259° ENE2025-07-11 17:30:15.006Z87.518° E20.567°2025-07-11 17:33:15.006Z147.316° SSE
4 mins2025-07-11 19:02:15.006Z322.745° NNW2025-07-11 19:04:15.006Z278.711° WNW18.146°2025-07-11 19:06:15.006Z243.994° WSW
|